User: anonymous
Location: Caltech
(34.1382°N, 118.1253°W)
Time: 00:56:46
(UTC-07:00)
Language:

ADEOS II - Orbit

View from above orbital plane
View from above orbital plane
View from above satellite
View from above satellite

Ground track
Ground track

The orbit data is extracted from the following two-line orbital elements,

1 27597U 02056A   14261.49930865  .00000273  00000-0  12929-3 0  3959
2 27597 098.2771 264.4021 0001954 076.8895 034.3596 14.26857534612405
Epoch (UTC): 18 September 2014 11:59:00
Eccentricity: 0.0001954
inclination: 98.2771°
perigee height: 801 km
apogee height: 803 km
right ascension of ascending node: 264.4021°
argument of perigee: 76.8895°
revolutions per day: 14.26857534
mean anomaly at epoch: 34.3596°
orbit number at epoch: 61240

The dashed part of the orbit path shows where the satellite is in the earth's shadow,  

DLR